Location: Devargunta
(16.7631°N, 80.9077°E)
Time: 12:17:21
(UTC+00:00)

ATLAS 3B CENTAUR R/B - Pass Details

Date: 19 January 2021
Orbit: 218 x 3901 km, 28.1° (Epoch: 06 March)

Event Time Altitude Azimuth Distance (km) Brightness Sun altitude
Exits shadow 23:17:13 43° 301° (WNW) 2,159 3.8 -26.3°
Maximum altitude 23:21:26 84° 25° (NNE) 2,033 4.0 -25.4°
Drops below altitude 10° 23:40:37 10° 113° (ESE) 6,481 7.9 -20.9°
Sets 23:46:45 0° 114° (ESE) 7,872 8.8 -19.5°
